[[{"header":{"parameterUnit":"m.s-1","parameterCategory":1,"la1":30.2991,"la2":30.254,"lo1":-89.0895,"lo2":-89.0444,"dy":0.0017,"dx":0.0017,"nx":28,"ny":28,"refTime":"2024-05-18T09:00:00:Z","depth":0,"parameterNumber":2,"parameterNumberName":"U-component_of_WINDS"},"data":[0,0,0,0,0,0,0,0,0,0,0,0,0,0,0,0,0,0,0,0,0,0,0,0,0,0,0,0,0,0,0,0,0,0,0,0,0,0,0,0,0,0,0,0,0,0,0,0,0,0,0,0,0,0,0,0,0,0,0.6749,0.6751,0,0.6903,0.6905,0.6906,0.6953,0.6952,0.6951,0.695,0.7111,0.7115,0.712,0,0,0,0,0,0,0,0,0,0,0,0,0,0.6496,0.65,0.6749,0.6751,0.6753,0.6903,0.6905,0.6907,0.6953,0.6952,0.6951,0.695,0.7109,0.7115,0.7121,0,0,0,0,0,0,0,0,0,0,0,0,0,0.6623,0.6502,0.6749,0.6794,0.6799,0.6902,0.6905,0.6907,0.6953,0.6952,0.6951,0.695,0.7107,0.7114,0.7122,0.7191,0,0,0.7145,0.7148,0,0,0,0,0,0,0,0,0.6616,0.6633,0.6785,0.6791,0.6797,0.6907,0.6874,0.7003,0.6953,0.6895,0.695,0.6949,0.7044,0.7057,0.7088,0.7199,0.7206,0.7145,0.715,0.7153,0.7155,0,0,0,0,0,0,0,0.6607,0.6626,0.681,0.6787,0.6795,0.6807,0.6823,0.6899,0.6974,0.69,0.6904,0.6921,0.7047,0.7081,0.7092,0.7208,0.7145,0.7152,0.7156,0.7159,0.7382,0.7384,0,0,0,0,0,0,0.659,0.6619,0.6805,0.6814,0.6702,0.6812,0.6831,0.6873,0.6974,0.6988,0.6922,0.6923,0.7069,0.7083,0.7098,0.7186,0.7153,0.716,0.7164,0.7381,0.7383,0.7384,0,0,0,0,0,0,0.6585,0.6607,0.6799,0.6718,0.6743,0.6818,0.6865,0.6877,0.6911,0.699,0.7004,0.6942,0.7068,0.7088,0.7167,0.7192,0.7163,0.717,0.7379,0.7381,0.7383,0.7361,0,0,0,0,0,0,0.6577,0.6604,0.6632,0.6718,0.6747,0.6865,0.6866,0.6881,0.6923,0.6926,0.7013,0.7026,0.7069,0.7156,0.7175,0.7202,0.7176,0.7377,0.738,0.7383,0.736,0.7362,0.7364,0,0,0,0,0,0.6568,0.662,0.6633,0.6655,0.6783,0.6866,0.6883,0.693,0.6925,0.6953,0.7004,0.7024,0.7186,0.7164,0.7185,0.7215,0.7376,0.7379,0.7383,0.7359,0.7362,0.7364,0,0,0,0,0,0,0.6536,0.6632,0.6647,0.6729,0.6789,0.6874,0.6911,0.6932,0.6996,0.6995,0.7052,0.7071,0.7146,0.7189,0.7162,0.7287,0.7282,0.7289,0.7256,0.726,0.7262,0.725,0.7182,0,0,0,0,0,0.6538,0.6597,0.6679,0.6742,0.6772,0.6836,0.6874,0.6905,0.697,0.6996,0.7053,0.7116,0.7181,0.7223,0.7287,0.7366,0.7386,0.7397,0.7399,0.74,0.7406,0.745,0.7456,0.7395,0.7395,0.7395,0,0,0.6543,0.6603,0.6638,0.6737,0.6788,0.6848,0.6857,0.6921,0.6967,0.7006,0.7084,0.7128,0.7202,0.7281,0.7319,0.7319,0.7427,0.7404,0.7405,0.741,0.7454,0.746,0.7465,0.7397,0.7397,0.7396,0,0,0.6584,0.6636,0.6694,0.6743,0.6819,0.6861,0.6874,0.6957,0.6987,0.7066,0.7096,0.7151,0.7262,0.7313,0.7354,0.7411,0.7432,0.7431,0.7442,0.7484,0.7489,0.7493,0.7513,0.752,0.7437,0.7437,0.7437,0,0.6582,0.6673,0.6721,0.6783,0.6826,0.6863,0.6922,0.6968,0.7061,0.709,0.7088,0.7227,0.7279,0.737,0.7384,0.7416,0.7433,0.7421,0.7484,0.7489,0.7494,0.7514,0.7521,0.7436,0.7436,0.7436,0.7436,0,0.6666,0.6729,0.6767,0.6854,0.6901,0.6961,0.7018,0.706,0.7086,0.7128,0.7208,0.7272,0.7349,0.7373,0.74,0.7468,0.7465,0.7473,0.7469,0.7498,0.7518,0.7526,0.7435,0.7435,0.7435,0.7436,0,0,0.6692,0.6803,0.6816,0.6856,0.6941,0.6991,0.7052,0.7127,0.7161,0.7223,0.7276,0.7368,0.7375,0.7421,0.7454,0.7491,0.7531,0.7494,0.7497,0.7498,0.7609,0.7602,0.761,0.7545,0.7547,0.7548,0.7603,0,0.6743,0.6854,0.6897,0.6988,0.7046,0.7081,0.7134,0.7192,0.7233,0.7289,0.7334,0.7398,0.7403,0.7431,0.7469,0.7518,0.7554,0.7515,0.7595,0.7597,0.7575,0.7621,0.7614,0.7663,0.761,0.7612,0.7613,0,0.6818,0.6879,0.6974,0.7051,0.7077,0.7124,0.7195,0.7248,0.7314,0.7341,0.7391,0.7421,0.7487,0.7478,0.7569,0.7541,0.7576,0.7606,0.7609,0.7618,0.7607,0.7631,0.7679,0.7686,0.7625,0.7624,0.7623,0,0.6826,0.6933,0.7003,0.7036,0.7127,0.7159,0.7199,0.7264,0.7305,0.7367,0.7394,0.7463,0.7501,0.7554,0.7602,0.7592,0.7689,0.7684,0.7713,0.7711,0.7732,0.773,0.7786,0.7755,0.7755,0.7755,0.7754,0,0.6878,0.6935,0.7008,0.7051,0.7115,0.7165,0.7228,0.727,0.7327,0.7379,0.7414,0.7462,0.7523,0.7579,0.7617,0.7686,0.7703,0.7726,0.7736,0.7723,0.772,0.7747,0.7745,0.7757,0.7756,0.7756,0.7755,0,0.6899,0.695,0.7029,0.7108,0.7129,0.7172,0.724,0.7284,0.7325,0.7391,0.7409,0.7474,0.7542,0.7595,0.7683,0.7709,0.7781,0.7792,0.7758,0.7763,0.7789,0.7785,0.7864,0.7877,0.7837,0.7837,0.7837,0,0.6929,0.6973,0.7056,0.7093,0.7131,0.7191,0.7232,0.7283,0.7325,0.7403,0.7436,0.7506,0.7564,0.7671,0.7726,0.7794,0.7806,0.7829,0.7817,0.7802,0.7806,0.7802,0.7807,0.7831,0.7831,0.7831,0.7831,0,0.6976,0.6998,0.7057,0.7124,0.7172,0.7228,0.7284,0.7313,0.7373,0.7419,0.7487,0.7532,0.7622,0.769,0.7763,0.7804,0.7828,0.7834,0.7844,0.7832,0.781,0.7822,0.7762,0.7832,0.7832,0.7832,0.7832,0.7832,0.7002,0.7042,0.7106,0.717,0.7217,0.7269,0.7313,0.7359,0.7417,0.7492,0.7519,0.7589,0.7653,0.7753,0.7795,0.7851,0.7852,0.7867,0.7871,0.7873,0.7872,0.7801,0.7864,0.7864,0.7864,0.7864,0.7864,0,0.7051,0.7093,0.7151,0.7228,0.7277,0.7294,0.7356,0.7397,0.7458,0.7516,0.7572,0.765,0.7716,0.7776,0.7845,0.7879,0.7891,0.7895,0.7893,0.7902,0.7867,0.7851,0.7884,0.7884,0.7884,0.7884,0.7884,0.7884,0.7082,0.715,0.718,0.7272,0.7315,0.7383,0.7417,0.7465,0.751,0.7596,0.765,0.7689,0.7747,0.782,0.7882,0.7898,0.7921,0.7922,0.7941,0.7907,0.7905,0.7902,0.7887,0.7927,0.7927,0.7972,0.7972,0.7972]},{"header":{"parameterUnit":"m.s-1","parameterCategory":1,"la1":30.2991,"la2":30.254,"lo1":-89.0895,"lo2":-89.0444,"dy":0.0017,"dx":0.0017,"nx":28,"ny":28,"refTime":"2024-05-18T09:00:00:Z","depth":0,"parameterNumber":3,"parameterNumberName":"V-component_of_WINDS"},"data":[0,0,0,0,0,0,0,0,0,0,0,0,0,0,0,0,0,0,0,0,0,0,0,0,0,0,0,0,0,0,0,0,0,0,0,0,0,0,0,0,0,0,0,0,0,0,0,0,0,0,0,0,0,0,0,0,0,0,2.6763,2.6763,0,2.6728,2.6727,2.6727,2.6667,2.6666,2.6665,2.6664,2.6627,2.6627,2.6627,0,0,0,0,0,0,0,0,0,0,0,0,0,2.6778,2.6778,2.6763,2.6763,2.6762,2.6728,2.6727,2.6727,2.6668,2.6666,2.6665,2.6664,2.6627,2.6627,2.6627,0,0,0,0,0,0,0,0,0,0,0,0,0,2.676,2.6778,2.6763,2.6729,2.6725,2.6728,2.6727,2.6727,2.6668,2.6666,2.6664,2.6663,2.6627,2.6627,2.6627,2.666,0,0,2.6627,2.6627,0,0,0,0,0,0,0,0,2.6761,2.676,2.6734,2.6731,2.6727,2.67,2.6719,2.6704,2.6668,2.669,2.6664,2.6662,2.6652,2.665,2.6647,2.6658,2.6656,2.6627,2.6627,2.6627,2.6627,0,0,0,0,0,0,0,2.6763,2.6761,2.6749,2.6734,2.673,2.6714,2.671,2.6716,2.6681,2.6688,2.6683,2.668,2.665,2.6647,2.6646,2.6656,2.6627,2.6627,2.6627,2.6627,2.6689,2.669,0,0,0,0,0,0,2.6769,2.6762,2.675,2.6748,2.6741,2.6715,2.671,2.6711,2.668,2.6674,2.6681,2.6677,2.6648,2.6646,2.6644,2.6678,2.6627,2.6627,2.6627,2.6687,2.6689,2.6691,0,0,0,0,0,0,2.677,2.6769,2.6752,2.6754,2.6751,2.6717,2.6717,2.6711,2.6708,2.6676,2.6669,2.6685,2.6647,2.6644,2.6656,2.6676,2.6627,2.6627,2.6685,2.6688,2.669,2.6748,0,0,0,0,0,0,2.677,2.6769,2.6782,2.6755,2.6751,2.6765,2.6719,2.6711,2.6708,2.6702,2.6677,2.6671,2.6645,2.6656,2.6656,2.6675,2.6627,2.6683,2.6686,2.6689,2.6744,2.6752,2.6759,0,0,0,0,0,2.6771,2.68,2.6783,2.6782,2.6766,2.6766,2.6763,2.6733,2.671,2.6722,2.6701,2.6672,2.6675,2.6658,2.6657,2.6677,2.6682,2.6685,2.6689,2.6741,2.675,2.6759,0,0,0,0,0,0,2.6831,2.6796,2.6776,2.6798,2.6785,2.6756,2.677,2.6745,2.6738,2.6733,2.6695,2.669,2.6706,2.6693,2.6675,2.6705,2.6673,2.6677,2.6713,2.6722,2.6729,2.6731,2.6627,0,0,0,0,0,2.6847,2.685,2.6819,2.6841,2.6835,2.6804,2.6803,2.678,2.6766,2.676,2.674,2.6726,2.6723,2.6723,2.6719,2.6743,2.6735,2.6756,2.6763,2.677,2.6772,2.6781,2.6789,2.6703,2.6703,2.6703,0,0,2.6879,2.686,2.6864,2.6852,2.684,2.6842,2.68,2.6806,2.6807,2.6761,2.6769,2.6754,2.6737,2.6754,2.676,2.6743,2.6794,2.6774,2.6779,2.6779,2.6785,2.6793,2.6801,2.6705,2.6705,2.6704,0,0,2.6938,2.6926,2.694,2.6929,2.6911,2.6889,2.6893,2.6868,2.6855,2.6864,2.6828,2.683,2.6827,2.6814,2.6808,2.6862,2.6834,2.6862,2.6899,2.6908,2.6915,2.6921,2.6936,2.6943,2.6865,2.6865,2.6865,0,2.698,2.6983,2.6952,2.6958,2.6953,2.6912,2.6926,2.6916,2.6898,2.6894,2.6876,2.6869,2.6855,2.6867,2.688,2.6877,2.6878,2.6863,2.6917,2.6922,2.6927,2.6941,2.6948,2.6869,2.6868,2.6868,2.6867,0,2.7034,2.7037,2.7051,2.7033,2.703,2.7041,2.701,2.701,2.6988,2.6968,2.6976,2.6957,2.6947,2.6949,2.6928,2.6958,2.6947,2.6924,2.689,2.6939,2.6952,2.6957,2.6873,2.6872,2.6871,2.687,0,0,2.7128,2.7092,2.7098,2.7088,2.7065,2.7066,2.7074,2.7065,2.7064,2.7053,2.7057,2.7055,2.7032,2.7025,2.7002,2.7011,2.705,2.6985,2.6984,2.6995,2.7077,2.7093,2.71,2.7033,2.7034,2.7035,2.7078,0,2.718,2.7191,2.7163,2.7181,2.7182,2.7143,2.7149,2.7135,2.7117,2.7114,2.7095,2.7092,2.7064,2.7059,2.7066,2.7044,2.7065,2.7041,2.7034,2.7034,2.7036,2.7107,2.7124,2.7166,2.7083,2.7084,2.7084,0,2.7241,2.7232,2.725,2.7224,2.7223,2.723,2.7217,2.7216,2.7199,2.7185,2.7176,2.715,2.7154,2.7124,2.7128,2.7112,2.7108,2.7097,2.7098,2.7093,2.706,2.7102,2.7179,2.7184,2.7093,2.7092,2.7092,0,2.7303,2.7296,2.7305,2.7299,2.727,2.7274,2.7262,2.7243,2.7239,2.7228,2.7224,2.7215,2.7209,2.7201,2.7172,2.7153,2.7178,2.7147,2.7165,2.7165,2.7169,2.7169,2.7244,2.7172,2.7172,2.7172,2.7172,0,2.7362,2.7374,2.7333,2.7338,2.735,2.7317,2.7329,2.7313,2.7296,2.7296,2.7263,2.7264,2.7227,2.7223,2.7201,2.7206,2.7204,2.7192,2.7185,2.7193,2.7194,2.7187,2.7182,2.7174,2.7173,2.7173,2.7173,0,2.7432,2.7406,2.7413,2.7384,2.7377,2.7387,2.7361,2.7364,2.7345,2.7345,2.7344,2.7312,2.7306,2.7277,2.7264,2.7249,2.726,2.7249,2.7266,2.7261,2.7279,2.7277,2.735,2.7356,2.7284,2.7285,2.7285,0,2.747,2.7478,2.745,2.7448,2.7437,2.7435,2.743,2.7398,2.7393,2.7373,2.7378,2.737,2.7361,2.7352,2.7327,2.7317,2.7303,2.733,2.7301,2.7308,2.73,2.7298,2.7298,2.7335,2.7336,2.7337,2.7337,0,2.7538,2.7524,2.7519,2.7508,2.7503,2.7493,2.748,2.7481,2.7445,2.7441,2.7435,2.7428,2.7414,2.7405,2.739,2.7376,2.735,2.7347,2.735,2.7356,2.7364,2.7357,2.7279,2.7344,2.7344,2.7343,2.7343,2.7343,2.7591,2.7595,2.7576,2.757,2.7557,2.7547,2.7547,2.7527,2.7521,2.7508,2.7489,2.7485,2.7465,2.7442,2.743,2.7425,2.741,2.7416,2.7416,2.7417,2.742,2.7368,2.7423,2.7422,2.7422,2.7422,2.7422,0,2.7655,2.764,2.7635,2.7619,2.7614,2.7591,2.7576,2.7573,2.7569,2.7554,2.7545,2.7536,2.7527,2.7502,2.7489,2.749,2.7477,2.7487,2.7485,2.7482,2.7435,2.7433,2.7497,2.7497,2.7497,2.7497,2.7497,2.7497,2.7687,2.7692,2.7676,2.7674,2.7659,2.7655,2.7648,2.7637,2.7624,2.7615,2.7608,2.7591,2.7571,2.7557,2.7546,2.7539,2.7535,2.7548,2.7536,2.7493,2.7486,2.7479,2.7475,2.7548,2.7548,2.7583,2.7583,2.7583]}]]